sat.trackr.live / text

‹ back to catalog

IRIDIUM 120

NORAD 42805 · 2017-039C

PAYLOAD ACTIVE UNKNOWN

§ Identity

Operator
Country
US
Launch date
2017-06-25
Launch site
AFWTR
Launch vehicle
Mass (kg)
RCS (m²)

Purposes: comms

External: N2YO · Heavens-Above · Gunter

§ Orbital elements

Epoch: 2026-05-25T01:42:04.197024Z

Period
100.40 min
Inclination
86.3951°
Eccentricity
0.0002030
Mean motion
14.34218743 rev/d
Perigee alt
776.2 km
Apogee alt
779.1 km
Semi-major
7,155.8 km
B*
1.4343e-5
RAAN
331.6312°
Arg perigee
87.7643°
Mean anomaly
272.3786°
Rev number
46,786

§ Raw data

IRIDIUM 1201 42805U 17039C   26145.07088191  .00000060  00000+0  14343-4 0  99952 42805  86.3951 331.6312 0002030  87.7643 272.3786 14.34218743467865

JSON: /api/v1/satellites/42805 · /tle

For live sub-satellite position, see the globe view (requires WebGL).

§ Visibility from observer

Set your observer location to see the next 7 days of passes ≥ 10°. The values pass through the URL so the page stays shareable.

No JS? Fill the form by hand. The geolocation button needs JavaScript.